When you browse on this site, cookies collect data to enhance your experience and personalize the content and advertising you see.
Visit our Privacy Policy to learn more. By continuing to use the site, you agree to this use of cookies and data.
  • In Netherlands
  • List of Countries
  • For 7 days
  • Water Temperature
  • Weather Map
  • Weather Widgets
  • user-avatar
    Login

    Hourly Weather Santa Cruz

    Today, 20 September, Friday

    Time Temperature Precipitation Wind Pressure Humidity
    00:00 +33°C° 0.1 mm 4 mps 718 mmHg 44%
    01:00 +31°C° 0.1 mm 3 mps 719 mmHg 47%
    02:00 +30°C° 0.1 mm 1 mps 719 mmHg 50%
    03:00 +29°C° 0.6 mm 2 mps 720 mmHg 48%
    04:00 +29°C° 0.6 mm 2 mps 720 mmHg 47%
    05:00 +28°C° 0.6 mm 3 mps 721 mmHg 46%
    06:00 +28°C° 0 mm 4 mps 722 mmHg 45%
    07:00 +27°C° 0 mm 5 mps 723 mmHg 44%
    08:00 +27°C° 0 mm 6 mps 724 mmHg 43%
    09:00 +27°C° 0 mm 5 mps 724 mmHg 42%
    10:00 +28°C° 0 mm 4 mps 724 mmHg 42%
    11:00 +28°C° 0 mm 4 mps 724 mmHg 41%
    12:00 +29°C° 0 mm 3 mps 724 mmHg 40%
    13:00 +29°C° 0 mm 3 mps 723 mmHg 39%
    14:00 +29°C° 0 mm 2 mps 722 mmHg 38%
    15:00 +30°C° 0 mm 2 mps 722 mmHg 37%
    16:00 +30°C° 0 mm 2 mps 722 mmHg 35%
    17:00 +31°C° 0 mm 2 mps 721 mmHg 34%
    18:00 +29°C° 0 mm 2 mps 722 mmHg 37%
    19:00 +28°C° 0 mm 2 mps 723 mmHg 39%
    20:00 +27°C° 0 mm 2 mps 724 mmHg 42%
    21:00 +26°C° 0 mm 3 mps 724 mmHg 41%
    22:00 +25°C° 0 mm 5 mps 724 mmHg 39%
    23:00 +23°C° 0 mm 6 mps 725 mmHg 37%

    Tomorrow, 21 September, Saturday

    Time Temperature Precipitation Wind Pressure Humidity
    00:00 +22°C° 0 mm 6 mps 725 mmHg 38%
    01:00 +21°C° 0 mm 6 mps 725 mmHg 40%
    02:00 +20°C° 0 mm 6 mps 724 mmHg 41%
    03:00 +20°C° 0 mm 6 mps 725 mmHg 42%
    04:00 +20°C° 0 mm 6 mps 725 mmHg 43%
    05:00 +19°C° 0 mm 6 mps 725 mmHg 44%
    06:00 +20°C° 0 mm 6 mps 726 mmHg 43%
    07:00 +21°C° 0 mm 6 mps 726 mmHg 42%
    08:00 +21°C° 0 mm 6 mps 727 mmHg 41%
    09:00 +24°C° 0 mm 6 mps 727 mmHg 37%
    10:00 +27°C° 0 mm 5 mps 727 mmHg 34%
    11:00 +29°C° 0 mm 5 mps 727 mmHg 30%
    12:00 +30°C° 0 mm 5 mps 726 mmHg 29%
    13:00 +32°C° 0 mm 4 mps 725 mmHg 27%
    14:00 +34°C° 0 mm 4 mps 724 mmHg 26%
    15:00 +34°C° 0 mm 3 mps 724 mmHg 27%
    16:00 +33°C° 0 mm 3 mps 723 mmHg 27%
    17:00 +33°C° 0 mm 3 mps 723 mmHg 28%
    18:00 +30°C° 0 mm 3 mps 723 mmHg 32%
    19:00 +28°C° 0 mm 3 mps 724 mmHg 35%
    20:00 +26°C° 0 mm 3 mps 724 mmHg 39%
    21:00 +26°C° 0 mm 4 mps 725 mmHg 40%
    22:00 +25°C° 0 mm 4 mps 725 mmHg 40%
    23:00 +23°C° 0 mm 5 mps 726 mmHg 41%

    Day after tomorrow, 22 September, Sunday

    Time Temperature Precipitation Wind Pressure Humidity
    00:00 +22°C° 0 mm 5 mps 726 mmHg 42%
    01:00 +21°C° 0 mm 5 mps 725 mmHg 42%
    02:00 +21°C° 0 mm 6 mps 725 mmHg 43%
    03:00 +21°C° 0 mm 6 mps 725 mmHg 43%
    04:00 +21°C° 0 mm 6 mps 726 mmHg 44%
    05:00 +21°C° 0 mm 6 mps 726 mmHg 44%
    06:00 +22°C° 0 mm 6 mps 726 mmHg 41%
    07:00 +24°C° 0 mm 6 mps 727 mmHg 38%
    08:00 +26°C° 0 mm 7 mps 728 mmHg 36%
    09:00 +28°C° 0 mm 6 mps 728 mmHg 32%
    10:00 +30°C° 0 mm 6 mps 727 mmHg 29%
    11:00 +33°C° 0 mm 6 mps 727 mmHg 25%
    12:00 +34°C° 0 mm 5 mps 727 mmHg 24%
    13:00 +36°C° 0 mm 5 mps 726 mmHg 22%
    14:00 +37°C° 0 mm 4 mps 725 mmHg 21%
    15:00 +36°C° 0 mm 4 mps 724 mmHg 21%
    16:00 +36°C° 0 mm 4 mps 724 mmHg 21%
    17:00 +36°C° 0 mm 3 mps 723 mmHg 22%
    18:00 +33°C° 0 mm 3 mps 724 mmHg 25%
    19:00 +30°C° 0 mm 3 mps 724 mmHg 29%
    20:00 +28°C° 0 mm 2 mps 724 mmHg 33%
    21:00 +27°C° 0 mm 3 mps 724 mmHg 32%
    22:00 +27°C° 0 mm 3 mps 725 mmHg 32%
    23:00 +27°C° 0 mm 3 mps 725 mmHg 32%

    23 September, Monday

    Time Temperature Precipitation Wind Pressure Humidity
    00:00 +26°C° 0 mm 4 mps 725 mmHg 33%
    01:00 +26°C° 0 mm 4 mps 724 mmHg 33%
    02:00 +25°C° 0 mm 4 mps 724 mmHg 34%
    03:00 +25°C° 0 mm 4 mps 724 mmHg 34%
    04:00 +25°C° 0 mm 4 mps 724 mmHg 35%
    05:00 +23°C° 0 mm 4 mps 724 mmHg 35%
    06:00 +25°C° 0 mm 4 mps 724 mmHg 33%
    07:00 +27°C° 0 mm 4 mps 725 mmHg 30%
    08:00 +28°C° 0 mm 4 mps 725 mmHg 27%
    09:00 +31°C° 0 mm 3 mps 725 mmHg 24%
    10:00 +35°C° 0 mm 3 mps 725 mmHg 21%
    11:00 +38°C° 0 mm 2 mps 725 mmHg 18%
    12:00 +39°C° 0 mm 2 mps 724 mmHg 18%
    13:00 +40°C° 0 mm 3 mps 723 mmHg 17%
    14:00 +43°C° 0 mm 3 mps 722 mmHg 16%
    15:00 +42°C° 0 mm 3 mps 721 mmHg 17%
    16:00 +42°C° 0 mm 3 mps 721 mmHg 18%
    17:00 +41°C° 0 mm 4 mps 720 mmHg 18%
    18:00 +37°C° 0 mm 3 mps 721 mmHg 23%
    19:00 +34°C° 0 mm 2 mps 721 mmHg 28%
    20:00 +30°C° 0 mm 1 mps 721 mmHg 32%
    21:00 +30°C° 0 mm 1 mps 722 mmHg 33%
    22:00 +29°C° 0 mm 1 mps 722 mmHg 34%
    23:00 +29°C° 0 mm 2 mps 723 mmHg 35%

    24 September, Tuesday

    Time Temperature Precipitation Wind Pressure Humidity
    00:00 +29°C° 0 mm 2 mps 723 mmHg 35%
    01:00 +28°C° 0 mm 2 mps 723 mmHg 35%
    02:00 +28°C° 0 mm 3 mps 723 mmHg 35%
    03:00 +29°C° 0 mm 4 mps 724 mmHg 32%
    04:00 +30°C° 0 mm 6 mps 724 mmHg 29%
    05:00 +30°C° 0 mm 7 mps 725 mmHg 25%
    06:00 +30°C° 0 mm 7 mps 725 mmHg 25%
    07:00 +31°C° 0 mm 8 mps 726 mmHg 24%
    08:00 +32°C° 0 mm 8 mps 727 mmHg 24%
    09:00 +33°C° 0 mm 8 mps 727 mmHg 22%
    10:00 +35°C° 0 mm 8 mps 727 mmHg 20%
    11:00 +37°C° 0 mm 8 mps 727 mmHg 18%
    12:00 +36°C° 0 mm 7 mps 726 mmHg 17%
    13:00 +38°C° 0 mm 6 mps 725 mmHg 17%
    14:00 +38°C° 0 mm 6 mps 724 mmHg 17%
    15:00 +38°C° 0 mm 6 mps 724 mmHg 17%
    16:00 +37°C° 0 mm 5 mps 723 mmHg 17%
    17:00 +37°C° 0 mm 5 mps 723 mmHg 17%
    18:00 +35°C° 0 mm 5 mps 724 mmHg 19%
    19:00 +33°C° 0 mm 5 mps 724 mmHg 21%
    20:00 +30°C° 0 mm 5 mps 725 mmHg 22%
    21:00 +30°C° 0 mm 5 mps 725 mmHg 23%
    22:00 +29°C° 0 mm 5 mps 726 mmHg 23%
    23:00 +28°C° 0 mm 6 mps 726 mmHg 24%

    25 September, Wednesday

    Time Temperature Precipitation Wind Pressure Humidity
    00:00 +28°C° 0 mm 6 mps 726 mmHg 24%
    01:00 +27°C° 0 mm 6 mps 726 mmHg 24%
    02:00 +27°C° 0 mm 6 mps 725 mmHg 24%
    03:00 +26°C° 0 mm 6 mps 726 mmHg 24%
    04:00 +26°C° 0 mm 6 mps 726 mmHg 24%
    05:00 +24°C° 0 mm 6 mps 726 mmHg 25%
    06:00 +26°C° 0 mm 6 mps 726 mmHg 23%
    07:00 +27°C° 0 mm 7 mps 727 mmHg 22%
    08:00 +28°C° 0 mm 7 mps 727 mmHg 21%
    09:00 +30°C° 0 mm 7 mps 727 mmHg 19%
    10:00 +32°C° 0 mm 7 mps 727 mmHg 18%
    11:00 +34°C° 0 mm 7 mps 727 mmHg 16%
    12:00 +35°C° 0 mm 7 mps 726 mmHg 15%
    13:00 +36°C° 0 mm 6 mps 725 mmHg 15%
    14:00 +38°C° 0 mm 6 mps 724 mmHg 14%
    15:00 +36°C° 0 mm 6 mps 724 mmHg 14%
    16:00 +36°C° 0 mm 5 mps 724 mmHg 15%
    17:00 +35°C° 0 mm 5 mps 723 mmHg 15%
    18:00 +33°C° 0 mm 4 mps 724 mmHg 16%
    19:00 +30°C° 0 mm 4 mps 724 mmHg 18%
    20:00 +27°C° 0 mm 3 mps 724 mmHg 20%
    21:00 +26°C° 0 mm 3 mps 725 mmHg 21%
    22:00 +25°C° 0 mm 3 mps 725 mmHg 21%
    23:00 +25°C° 0 mm 3 mps 725 mmHg 22%
    Show more